Flag Weather past 2 weeks in Caracas, Venezuela

Now
77 °F

Clear.


Feels Like: 79 °F
Forecast: 66 / 78 °F
Wind: 6 mph from Northeast

Location: Caracas / Maiquetia Aerop. Intl. Simon Bolivar

Current Time: Nov 29, 2014 at 3:26:10 AM

Latest Report: Nov 29, 2014 at 2:30 AM


Visibility: 10 mi

Pressure: 29.92 "Hg

Humidity: 79%

Dew point: 70 °F

Location of CaracasLocation

Historic Weather in Caracas — Graph

°F

Caracas temperature yesterday

Maximum temperature yesterday: 88 °F (at 12:30 PM)
Minimum temperature yesterday: 75 °F (at 3:30 AM)
Average temperature yesterday: 80 °F

Past Weeks' High & Low Weather Summary

 TemperatureHumidityPressure
High90 °F (Nov 15, 11:30 AM)89% (Nov 21, 8:30 PM)30.01 "Hg (Nov 21, 8:30 PM)
Low75 °F (Nov 22, 2:30 AM)55% (Nov 19, 8:30 AM)29.83 "Hg (Nov 19, 6:30 PM)
Average81 °F75%29.93 "Hg
* Reported Nov 14 2:30 AM — Nov 29 2:30 AM, Caracas, Weather by CustomWeather, © 2014

Note: Actual official high and low records may vary slightly from our data, if they occured in-between our weather recording intervals... More about our weather records

Advertising

Caracas weather history for previous 24 hours

 ConditionsComfort  
Time TempWeatherWind HumidityBarometerVisibility
2:30 AM
Nov 29
77 °FClear.6 mph79%29.92 "Hg10 mi
1:30 AM77 °FClear.No wind74%29.92 "Hg10 mi
12:30 AM77 °FClear.3 mph79%29.92 "Hg10 mi
11:30 PM
Nov 28
77 °FClear.No wind79%29.95 "Hg10 mi
10:30 PM79 °FPassing clouds.No wind79%29.95 "HgN/A
9:30 PM79 °FPassing clouds.1 mph79%29.95 "HgN/A
8:30 PM79 °FPassing clouds.1 mph89%29.95 "HgN/A
7:30 PM79 °FPassing clouds.3 mph89%29.92 "HgN/A
6:30 PM84 °FPassing clouds.1 mph70%29.92 "HgN/A
5:30 PM84 °FPassing clouds.2 mph74%29.92 "HgN/A
4:30 PM84 °FPassing clouds.3 mph74%29.92 "HgN/A
3:30 PM84 °FScattered clouds.5 mph70%29.89 "HgN/A
2:30 PM84 °FScattered clouds.1 mph70%29.92 "HgN/A
1:30 PM84 °FScattered clouds.3 mph70%29.92 "HgN/A
12:30 PM88 °FScattered clouds.2 mph62%29.98 "HgN/A
11:30 AM86 °FScattered clouds.2 mph66%29.92 "HgN/A
10:30 AM86 °FPassing clouds.5 mph66%29.98 "HgN/A
9:30 AM82 °FPassing clouds.3 mph70%29.98 "HgN/A
8:30 AM81 °FPassing clouds.1 mph74%29.98 "HgN/A
7:30 AM77 °FPassing clouds.2 mph69%29.95 "HgN/A
6:30 AM75 °FPassing clouds.No wind78%29.92 "HgN/A
5:30 AM75 °FSunny.5 mph83%29.89 "Hg10 mi
4:30 AM75 °FClear.5 mph83%29.89 "Hg10 mi
3:30 AM75 °FClear.6 mph83%29.89 "Hg10 mi
Weather by CustomWeather, © 2014

See weather overviewHow to use our weather pages